This is the latest recevied weather packets stored in our database for station/object N4AN. If no packets are shown the sender has not sent any weather packets the latest 10 day(s).
| Time | Temp. | Humidity | Pressure | Rain* | Wind** | Luminosity | Snow |
|---|---|---|---|---|---|---|---|
| 1788108958 | 30.56° C | 76% | 1011.7 hPa | 0 mm | - | - | - |
| 1788108655 | 31.67° C | 75% | 1012 hPa | 0 mm | - | - | - |
| 1788108354 | 31.67° C | 74% | 1011.9 hPa | 0 mm | - | - | - |
| 1788108053 | 31.67° C | 74% | 1011.9 hPa | 0 mm | - | - | - |
| 1788107753 | 30.56° C | 76% | 1011.8 hPa | 0 mm | - | - | - |
| 1788107453 | 30° C | 76% | 1011.8 hPa | 0 mm | - | - | - |
| 1788107152 | 30° C | 76% | 1011.8 hPa | 0 mm | - | - | - |
| 1788106852 | 30.56° C | 76% | 1011.7 hPa | 0 mm | - | - | - |
| 1788106551 | 30.56° C | 75% | 1011.8 hPa | 0 mm | - | - | - |
| 1788106250 | 30.56° C | 77% | 1011.9 hPa | 0 mm | - | - | - |
| 1788105950 | 30° C | 76% | 1011.8 hPa | 0 mm | - | - | - |
| 1788105650 | 30.56° C | 75% | 1012.1 hPa | 0 mm | - | - | - |
| 1788105349 | 31.11° C | 73% | 1012.2 hPa | 0 mm | - | - | - |
| 1788105049 | 31.67° C | 72% | 1012.3 hPa | 0 mm | - | - | - |
| 1788104749 | 32.22° C | 73% | 1012.4 hPa | 0 mm | - | - | - |
| 1788104449 | 32.22° C | 74% | 1012.6 hPa | 0 mm | - | - | - |
| 1788104147 | 31.67° C | 76% | 1012.6 hPa | 0 mm | - | - | - |
| 1788103847 | 30.56° C | 76% | 1012.5 hPa | 0 mm | - | - | - |
| 1788103546 | 30.56° C | 76% | 1012.6 hPa | 0 mm | - | - | - |
| 1788103246 | 31.11° C | 77% | 1012.4 hPa | 0 mm | - | - | - |
| 1788102946 | 30.56° C | 78% | 1012.3 hPa | 0 mm | - | - | - |
| 1788102645 | 30.56° C | 79% | 1012.1 hPa | 0 mm | - | - | - |
| 1788102345 | 30.56° C | 77% | 1012.2 hPa | 0 mm | - | - | - |
| 1788102043 | 30.56° C | 77% | 1012.1 hPa | 0 mm | - | - | - |
| 1788101743 | 31.11° C | 77% | 1012.1 hPa | 0 mm | - | - | - |
* Rain latest hour (hover to see other rain measurements)
** Current wind speed in m/s (hover to see current wind gust speed)